This demonstration page uses our WeatherBlox Daily Observations layout. Learn more.

Left ArrowRight Arrow

Hourly Observations for December 10, 2019

Temp ( °F °C ) Dew Point ( °F °C ) Humidity (%) Winds ( mph kmh ) Pressure ( in mb ) Visibility ( mi km ) Precip ( " mm )
12:56 am 00:56 Clear 21 -6.1 16 -8.9 81 81 N 3 6 30.14 1021 10 16 0.00 0.00
1:56 am 01:56 Clear 21 -6.1 15 -9.4 78 78 W 7 11 30.15 1021 10 16 0.00 0.00
2:56 am 02:56 Clear 22 -5.6 17 -8.3 82 82 NW 6 9 30.18 1022 10 16 0.00 0.00
3:56 am 03:56 Clear 24 -4.4 20 -6.7 84 84 NNW 13 20 30.19 1022 10 16 0.00 0.00
4:56 am 04:56 Clear 23 -5 20 -6.7 88 88 NNW 6 9 30.22 1024 10 16 0.00 0.00
5:30 am 05:30 Mostly Cloudy 21 -6 19 -7 93 93 N 10 17 30.32 1027 10 16 0.00 0.00
5:56 am 05:56 Partly Cloudy 21 -6.1 19 -7.2 92 92 N 10 17 30.27 1025 10 16 0.00 0.00
6:56 am 06:56 Cloudy 19 -7.2 14 -10 81 81 N 13 20 30.32 1027 10 16 0.00 0.00
7:56 am 07:56 Mostly Sunny 16 -8.9 11 -11.7 80 80 N 13 20 30.35 1028 10 16 0.00 0.00
8:56 am 08:56 Mostly Sunny 16 -8.9 11 -11.7 80 80 N 9 15 30.38 1029 10 16 0.00 0.00
9:56 am 09:56 Sunny 21 -6.1 11 -11.7 65 65 NNW 12 19 30.40 1030 10 16 0.00 0.00
10:56 am 10:56 Mostly Sunny 22 -5.6 11 -11.7 63 63 N 10 17 30.41 1030 10 16 0.00 0.00
11:56 am 11:56 Sunny 25 -3.9 11 -11.7 55 55 N 12 19 30.40 1029 10 16 0.00 0.00
12:56 pm 12:56 Sunny 28 -2.2 13 -10.6 53 53 NNW 8 13 30.38 1029 10 16 0.00 0.00
1:56 pm 13:56 Sunny 31 -0.6 15 -9.4 52 52 VRB 5 7 30.35 1028 10 16 0.00 0.00
2:56 pm 14:56 Sunny 32 0 15 -9.4 50 50 SSW 10 17 30.33 1027 10 16 0.00 0.00
3:56 pm 15:56 Sunny 29 -1.7 16 -8.9 58 58 SW 10 17 30.32 1027 10 16 0.00 0.00
4:56 pm 16:56 Cloudy 27 -2.8 17 -8.3 66 66 SSW 10 17 30.32 1027 10 16 0.00 0.00
5:56 pm 17:56 Mostly Clear 23 -5 16 -8.9 74 74 S 13 20 30.32 1027 10 16 0.00 0.00
6:56 pm 18:56 Clear 22 -5.6 16 -8.9 78 78 SSW 12 19 30.34 1027 10 16 0.00 0.00
7:56 pm 19:56 Clear 21 -6.1 16 -8.9 81 81 S 8 13 30.36 1028 10 16 0.00 0.00
8:56 pm 20:56 Clear 21 -6.1 18 -7.8 88 88 SSW 13 20 30.34 1027 10 16 0.00 0.00
9:56 pm 21:56 Clear 22 -5.6 20 -6.7 92 92 SW 14 22 30.32 1027 10 16 0.00 0.00
10:56 pm 22:56 Mostly Clear 25 -3.9 22 -5.6 88 88 SW 14 22 30.31 1026 10 16 0.00 0.00
11:56 pm 23:56 Clear 25 -3.9 22 -5.6 88 88 SW 12 19 30.31 1027 10 16 0.00 0.00

Powered by AerisWeather